QPF
0.01 0.00 0.00 0.01 0.01 0.03 0.03 0.03 0.04 0.04 0.04 0.04 0.03 0.04 0.04 0.04 0.03 0.03 0.03 0.03 0.04 0.05 0.07 0.05 0.04 0.06 0.05 0.03 0.02 0.02 0.02 0.02 0.01 0.01 0.01 0.01 0.01 0.01 0.01 0.01 0.02 0.02 0.02
0.02 0.01 0.00 0.01 0.01 0.02 0.04 0.04 0.03 0.03 0.03 0.03 0.03 0.03 0.03 0.03 0.03 0.02 0.02 0.03 0.04 0.06 0.06 0.04 0.04 0.04 0.04 0.02 0.02 0.02 0.01 0.01 0.01 0.01 0.00 0.00 0.01 0.01 0.01 0.01 0.02 0.02 0.02
0.01 0.01 0.01 0.01 0.02 0.02 0.03 0.04 0.03 0.03 0.03 0.03 0.03 0.03 0.03 0.03 0.03 0.03 0.02 0.03 0.06 0.06 0.03 0.02 0.02 0.02 0.02 0.02 0.02 0.01 0.02 0.02 0.01 0.01 0.01 0.01 0.01 0.01 0.03 0.02 0.02 0.03 0.03
0.01 0.01 0.01 0.01 0.02 0.02 0.03 0.03 0.03 0.03 0.04 0.04 0.04 0.03 0.03 0.03 0.04 0.04 0.03 0.04 0.05 0.04 0.02 0.01 0.01 0.01 0.01 0.01 0.02 0.01 0.02 0.02 0.01 0.01 0.00 0.01 0.01 0.03 0.03 0.02 0.02 0.02 0.02
0.00 0.00 0.01 0.01 0.03 0.03 0.03 0.03 0.03 0.03 0.04 0.04 0.03 0.03 0.03 0.03 0.04 0.04 0.04 0.03 0.03 0.03 0.02 0.01 0.01 0.01 0.01 0.01 0.01 0.01 0.01 0.01 0.01 0.00 0.00 0.01 0.02 0.04 0.04 0.03 0.03 0.02 0.02
0.00 0.00 0.01 0.01 0.02 0.03 0.03 0.03 0.03 0.04 0.04 0.03 0.03 0.03 0.03 0.03 0.04 0.04 0.03 0.03 0.02 0.02 0.02 0.01 0.01 0.01 0.01 0.01 0.01 0.01 0.01 0.01 0.00 0.00 0.01 0.01 0.02 0.04 0.04 0.04 0.04 0.03 0.02
0.00 0.00 0.00 0.01 0.01 0.02 0.02 0.03 0.04 0.04 0.04 0.03 0.04 0.05 0.04 0.04 0.04 0.03 0.03 0.03 0.03 0.02 0.01 0.01 0.01 0.01 0.01 0.01 0.01 0.00 0.01 0.01 0.00 0.01 0.01 0.02 0.03 0.04 0.04 0.04 0.04 0.03 0.03
0.01 0.00 0.00 0.00 0.01 0.01 0.02 0.02 0.05 0.05 0.04 0.03 0.04 0.05 0.04 0.04 0.03 0.02 0.02 0.02 0.03 0.02 0.01 0.01 0.01 0.01 0.01 0.00 0.01 0.00 0.00 0.00 0.00 0.01 0.01 0.02 0.03 0.04 0.04 0.03 0.03 0.04 0.04
0.01 0.00 0.00 0.00 0.01 0.01 0.02 0.01 0.03 0.07 0.06 0.04 0.03 0.03 0.03 0.03 0.03 0.02 0.02 0.02 0.03 0.03 0.02 0.01 0.00 0.00 0.00 0.00 0.00 0.00 0.00 0.00 0.00 0.00 0.00 0.01 0.02 0.03 0.04 0.04 0.03 0.04 0.05
0.01 0.00 0.00 0.00 0.01 0.01 0.01 0.02 0.02 0.04 0.06 0.07 0.04 0.04 0.03 0.03 0.02 0.02 0.01 0.02 0.03 0.03 0.03 0.01 0.00 0.00 0.00 0.00 0.00 0.00 0.00 0.00 0.00 0.00 0.01 0.01 0.02 0.03 0.03 0.03 0.03 0.03 0.04
0.02 0.01 0.01 0.01 0.01 0.01 0.01 0.02 0.04 0.05 0.06 0.06 0.06 0.05 0.05 0.05 0.03 0.02 0.01 0.01 0.02 0.03 0.02 0.01 0.00 0.00 0.00 0.00 0.00 0.00 0.00 0.00 0.00 0.00 0.01 0.02 0.03 0.03 0.03 0.03 0.03 0.03 0.03
0.02 0.02 0.02 0.02 0.01 0.02 0.01 0.02 0.03 0.04 0.04 0.04 0.04 0.05 0.06 0.07 0.04 0.03 0.03 0.02 0.02 0.02 0.01 0.01 0.00 0.00 0.00 0.01 0.01 0.00 0.00 0.01 0.01 0.01 0.02 0.02 0.03 0.03 0.04 0.03 0.03 0.03 0.03
0.01 0.02 0.03 0.03 0.02 0.02 0.02 0.02 0.03 0.03 0.03 0.04 0.04 0.04 0.05 0.07 0.07 0.05 0.04 0.02 0.02 0.02 0.01 0.01 0.00 0.00 0.00 0.01 0.01 0.01 0.01 0.01 0.01 0.02 0.02 0.02 0.03 0.04 0.04 0.04 0.03 0.03 0.03
0.01 0.02 0.02 0.03 0.02 0.02 0.02 0.03 0.03 0.04 0.04 0.04 0.03 0.04 0.05 0.06 0.07 0.07 0.04 0.03 0.02 0.02 0.01 0.01 0.00 0.00 0.00 0.00 0.00 0.00 0.00 0.01 0.01 0.01 0.01 0.01 0.02 0.04 0.05 0.05 0.04 0.04 0.03
0.01 0.02 0.03 0.03 0.02 0.02 0.03 0.03 0.03 0.03 0.04 0.04 0.03 0.03 0.04 0.05 0.06 0.07 0.04 0.03 0.03 0.03 0.02 0.01 0.01 0.01 0.00 0.00 0.00 0.00 0.00 0.01 0.01 0.01 0.01 0.00 0.01 0.02 0.03 0.05 0.06 0.05 0.04
0.02 0.02 0.03 0.03 0.03 0.02 0.02 0.03 0.03 0.03 0.04 0.05 0.04 0.03 0.03 0.04 0.04 0.06 0.05 0.04 0.04 0.03 0.02 0.01 0.01 0.01 0.00 0.00 0.00 0.00 0.00 0.01 0.00 0.00 0.01 0.01 0.01 0.01 0.02 0.04 0.06 0.06 0.06
0.02 0.02 0.03 0.04 0.04 0.03 0.02 0.02 0.03 0.03 0.04 0.05 0.04 0.04 0.04 0.03 0.03 0.04 0.05 0.05 0.05 0.03 0.02 0.01 0.01 0.01 0.01 0.00 0.00 0.00 0.00 0.00 0.00 0.00 0.01 0.01 0.01 0.01 0.01 0.03 0.05 0.06 0.07
0.02 0.02 0.02 0.04 0.04 0.04 0.03 0.02 0.03 0.03 0.03 0.05 0.05 0.04 0.04 0.04 0.03 0.03 0.04 0.04 0.04 0.04 0.03 0.02 0.01 0.01 0.01 0.01 0.00 0.00 0.00 0.00 0.00 0.00 0.01 0.01 0.01 0.01 0.02 0.02 0.02 0.04 0.07
0.02 0.02 0.03 0.03 0.04 0.04 0.04 0.03 0.03 0.04 0.04 0.04 0.05 0.05 0.05 0.05 0.03 0.03 0.03 0.02 0.03 0.03 0.03 0.03 0.02 0.01 0.01 0.01 0.01 0.01 0.00 0.00 0.01 0.01 0.01 0.02 0.01 0.01 0.02 0.02 0.02 0.03 0.04
0.02 0.02 0.02 0.03 0.04 0.05 0.05 0.05 0.05 0.06 0.05 0.05 0.04 0.05 0.05 0.06 0.05 0.03 0.03 0.02 0.02 0.03 0.03 0.03 0.03 0.02 0.02 0.01 0.01 0.01 0.01 0.00 0.01 0.01 0.01 0.01 0.01 0.01 0.01 0.02 0.02 0.02 0.02
0.02 0.02 0.02 0.03 0.03 0.04 0.05 0.05 0.06 0.06 0.06 0.04 0.04 0.04 0.05 0.06 0.06 0.04 0.03 0.02 0.02 0.02 0.02 0.03 0.03 0.03 0.02 0.02 0.02 0.01 0.01 0.01 0.01 0.01 0.02 0.02 0.02 0.01 0.02 0.03 0.03 0.03 0.03
0.02 0.03 0.03 0.03 0.03 0.03 0.04 0.05 0.06 0.06 0.07 0.05 0.04 0.04 0.04 0.04 0.05 0.04 0.03 0.02 0.01 0.02 0.02 0.03 0.03 0.04 0.03 0.03 0.02 0.02 0.02 0.02 0.01 0.01 0.01 0.01 0.02 0.03 0.02 0.03 0.04 0.04 0.05
0.01 0.03 0.03 0.03 0.03 0.03 0.04 0.04 0.05 0.06 0.06 0.06 0.05 0.06 0.05 0.05 0.05 0.04 0.02 0.02 0.02 0.02 0.02 0.03 0.03 0.04 0.04 0.04 0.03 0.02 0.02 0.02 0.02 0.01 0.01 0.01 0.01 0.03 0.03 0.03 0.03 0.04 0.05
0.01 0.02 0.04 0.03 0.03 0.03 0.04 0.04 0.05 0.05 0.05 0.06 0.07 0.07 0.07 0.05 0.05 0.05 0.04 0.02 0.01 0.01 0.02 0.03 0.03 0.04 0.04 0.04 0.04 0.02 0.01 0.01 0.01 0.01 0.01 0.01 0.01 0.01 0.02 0.02 0.02 0.03 0.04
0.02 0.02 0.04 0.03 0.02 0.02 0.03 0.03 0.05 0.04 0.05 0.06 0.08 0.08 0.07 0.06 0.05 0.06 0.05 0.04 0.02 0.01 0.01 0.02 0.03 0.04 0.05 0.05 0.05 0.04 0.02 0.02 0.01 0.01 0.01 0.01 0.01 0.01 0.01 0.02 0.02 0.02 0.04
0.03 0.02 0.04 0.04 0.02 0.02 0.02 0.02 0.04 0.04 0.04 0.04 0.06 0.08 0.09 0.07 0.06 0.06 0.05 0.05 0.04 0.02 0.01 0.01 0.02 0.03 0.04 0.05 0.05 0.05 0.04 0.04 0.03 0.01 0.01 0.01 0.01 0.01 0.01 0.01 0.01 0.02 0.03
MSLP
1026.53 1026.57 1026.39 1026.08 1025.76 1025.49 1025.26 1025.07 1024.85 1024.57 1024.18 1023.69 1023.15 1022.59 1022.08 1021.65 1021.33 1021.09 1020.90 1020.71 1020.47 1020.18 1019.82 1019.42 1019.02 1018.65 1018.35 1018.14 1018.01 1017.94 1017.93 1017.95 1017.98 1018.01 1018.05 1018.10 1018.15 1018.23 1018.31 1018.40 1018.50 1018.59 1018.68
1026.58 1026.58 1026.40 1026.13 1025.85 1025.62 1025.42 1025.25 1025.04 1024.75 1024.37 1023.89 1023.37 1022.86 1022.40 1022.04 1021.77 1021.57 1021.41 1021.23 1020.99 1020.68 1020.30 1019.89 1019.47 1019.10 1018.79 1018.56 1018.40 1018.31 1018.25 1018.21 1018.19 1018.19 1018.21 1018.25 1018.33 1018.43 1018.55 1018.68 1018.80 1018.90 1018.99
1026.81 1026.75 1026.54 1026.27 1025.99 1025.76 1025.58 1025.40 1025.18 1024.90 1024.53 1024.09 1023.62 1023.17 1022.77 1022.46 1022.23 1022.05 1021.88 1021.68 1021.41 1021.07 1020.67 1020.24 1019.83 1019.47 1019.17 1018.94 1018.78 1018.65 1018.55 1018.46 1018.38 1018.33 1018.32 1018.35 1018.43 1018.56 1018.71 1018.87 1019.02 1019.15 1019.25
1027.14 1027.03 1026.78 1026.47 1026.18 1025.94 1025.73 1025.53 1025.31 1025.03 1024.69 1024.29 1023.88 1023.50 1023.16 1022.90 1022.69 1022.51 1022.31 1022.06 1021.74 1021.36 1020.93 1020.50 1020.10 1019.76 1019.49 1019.28 1019.12 1018.97 1018.83 1018.69 1018.56 1018.45 1018.39 1018.40 1018.47 1018.61 1018.79 1018.98 1019.17 1019.32 1019.45
1027.49 1027.32 1027.04 1026.71 1026.40 1026.13 1025.90 1025.68 1025.44 1025.17 1024.84 1024.49 1024.14 1023.82 1023.54 1023.32 1023.12 1022.92 1022.68 1022.38 1022.00 1021.58 1021.13 1020.69 1020.31 1020.00 1019.77 1019.58 1019.42 1019.27 1019.09 1018.90 1018.70 1018.53 1018.42 1018.40 1018.45 1018.59 1018.79 1019.01 1019.23 1019.43 1019.59
1027.75 1027.56 1027.26 1026.94 1026.62 1026.35 1026.10 1025.86 1025.60 1025.32 1025.01 1024.69 1024.39 1024.12 1023.89 1023.69 1023.50 1023.28 1023.01 1022.66 1022.24 1021.77 1021.30 1020.87 1020.51 1020.23 1020.02 1019.85 1019.69 1019.52 1019.30 1019.06 1018.80 1018.58 1018.42 1018.35 1018.38 1018.51 1018.72 1018.97 1019.23 1019.47 1019.68
1027.87 1027.69 1027.42 1027.13 1026.85 1026.59 1026.34 1026.08 1025.81 1025.52 1025.21 1024.90 1024.62 1024.38 1024.19 1024.01 1023.83 1023.60 1023.30 1022.91 1022.47 1021.98 1021.50 1021.07 1020.72 1020.45 1020.25 1020.08 1019.91 1019.71 1019.45 1019.16 1018.85 1018.57 1018.36 1018.25 1018.26 1018.39 1018.60 1018.87 1019.16 1019.45 1019.71
1027.84 1027.71 1027.51 1027.29 1027.08 1026.86 1026.63 1026.38 1026.10 1025.78 1025.45 1025.14 1024.86 1024.63 1024.45 1024.28 1024.10 1023.87 1023.56 1023.17 1022.71 1022.22 1021.74 1021.31 1020.96 1020.69 1020.47 1020.28 1020.08 1019.83 1019.53 1019.18 1018.83 1018.51 1018.26 1018.12 1018.11 1018.22 1018.43 1018.72 1019.04 1019.37 1019.69
1027.72 1027.67 1027.57 1027.45 1027.32 1027.18 1026.99 1026.75 1026.46 1026.12 1025.76 1025.42 1025.13 1024.88 1024.69 1024.52 1024.34 1024.12 1023.81 1023.43 1022.98 1022.49 1022.02 1021.59 1021.22 1020.92 1020.67 1020.44 1020.18 1019.88 1019.53 1019.14 1018.75 1018.39 1018.12 1017.96 1017.93 1018.03 1018.24 1018.53 1018.87 1019.23 1019.59
1027.59 1027.62 1027.63 1027.62 1027.60 1027.53 1027.40 1027.18 1026.89 1026.52 1026.14 1025.76 1025.43 1025.15 1024.94 1024.76 1024.57 1024.35 1024.05 1023.68 1023.25 1022.78 1022.31 1021.88 1021.49 1021.15 1020.85 1020.56 1020.24 1019.88 1019.48 1019.05 1018.63 1018.26 1017.97 1017.80 1017.75 1017.83 1018.03 1018.31 1018.64 1019.02 1019.41
1027.51 1027.62 1027.72 1027.82 1027.89 1027.90 1027.82 1027.64 1027.34 1026.97 1026.55 1026.14 1025.77 1025.46 1025.21 1025.00 1024.80 1024.57 1024.28 1023.93 1023.52 1023.07 1022.61 1022.16 1021.75 1021.37 1021.01 1020.65 1020.26 1019.84 1019.40 1018.94 1018.50 1018.12 1017.83 1017.64 1017.58 1017.64 1017.80 1018.05 1018.37 1018.74 1019.14
1027.53 1027.69 1027.87 1028.05 1028.19 1028.26 1028.22 1028.05 1027.77 1027.39 1026.96 1026.53 1026.13 1025.79 1025.51 1025.27 1025.04 1024.80 1024.51 1024.16 1023.76 1023.33 1022.87 1022.43 1021.99 1021.57 1021.15 1020.73 1020.28 1019.82 1019.33 1018.85 1018.40 1018.01 1017.71 1017.51 1017.42 1017.44 1017.56 1017.77 1018.05 1018.39 1018.77
1027.63 1027.83 1028.05 1028.26 1028.44 1028.53 1028.52 1028.38 1028.11 1027.75 1027.33 1026.90 1026.49 1026.13 1025.82 1025.55 1025.30 1025.03 1024.73 1024.38 1023.99 1023.56 1023.12 1022.67 1022.22 1021.76 1021.30 1020.83 1020.33 1019.82 1019.30 1018.79 1018.33 1017.93 1017.61 1017.39 1017.27 1017.25 1017.31 1017.45 1017.67 1017.97 1018.32
1027.78 1028.00 1028.22 1028.43 1028.60 1028.70 1028.68 1028.55 1028.31 1027.98 1027.60 1027.20 1026.81 1026.46 1026.14 1025.85 1025.57 1025.28 1024.95 1024.59 1024.20 1023.78 1023.34 1022.90 1022.44 1021.96 1021.47 1020.96 1020.42 1019.86 1019.31 1018.77 1018.29 1017.86 1017.52 1017.27 1017.11 1017.03 1017.03 1017.10 1017.26 1017.49 1017.81
1027.92 1028.14 1028.35 1028.53 1028.66 1028.72 1028.69 1028.57 1028.36 1028.08 1027.75 1027.41 1027.07 1026.75 1026.45 1026.15 1025.84 1025.53 1025.18 1024.80 1024.41 1023.99 1023.56 1023.12 1022.66 1022.18 1021.67 1021.12 1020.54 1019.94 1019.34 1018.77 1018.25 1017.79 1017.41 1017.11 1016.90 1016.76 1016.69 1016.71 1016.80 1016.98 1017.25
1028.00 1028.22 1028.40 1028.53 1028.61 1028.62 1028.57 1028.44 1028.26 1028.03 1027.78 1027.52 1027.25 1026.98 1026.70 1026.41 1026.10 1025.76 1025.39 1025.00 1024.60 1024.19 1023.78 1023.35 1022.89 1022.41 1021.88 1021.30 1020.67 1020.03 1019.37 1018.75 1018.17 1017.65 1017.22 1016.87 1016.60 1016.41 1016.29 1016.25 1016.30 1016.44 1016.68
1027.99 1028.22 1028.38 1028.47 1028.49 1028.46 1028.37 1028.24 1028.08 1027.91 1027.73 1027.54 1027.35 1027.14 1026.90 1026.62 1026.31 1025.96 1025.58 1025.18 1024.79 1024.39 1023.98 1023.57 1023.12 1022.63 1022.08 1021.46 1020.79 1020.08 1019.36 1018.66 1018.01 1017.43 1016.93 1016.53 1016.20 1015.97 1015.81 1015.73 1015.75 1015.86 1016.09
1027.90 1028.16 1028.31 1028.37 1028.36 1028.29 1028.17 1028.04 1027.90 1027.77 1027.65 1027.53 1027.39 1027.22 1027.01 1026.75 1026.44 1026.09 1025.71 1025.32 1024.93 1024.55 1024.17 1023.77 1023.33 1022.83 1022.25 1021.60 1020.86 1020.08 1019.28 1018.49 1017.76 1017.10 1016.54 1016.07 1015.70 1015.42 1015.24 1015.14 1015.15 1015.26 1015.49
1027.75 1028.05 1028.22 1028.29 1028.26 1028.17 1028.05 1027.91 1027.79 1027.68 1027.59 1027.50 1027.40 1027.25 1027.06 1026.81 1026.50 1026.14 1025.77 1025.39 1025.03 1024.67 1024.31 1023.93 1023.50 1022.99 1022.39 1021.68 1020.89 1020.03 1019.15 1018.27 1017.45 1016.71 1016.08 1015.55 1015.13 1014.81 1014.60 1014.49 1014.49 1014.61 1014.85
1027.57 1027.92 1028.14 1028.23 1028.23 1028.15 1028.03 1027.91 1027.79 1027.69 1027.60 1027.51 1027.40 1027.24 1027.04 1026.77 1026.46 1026.11 1025.74 1025.39 1025.05 1024.72 1024.39 1024.03 1023.61 1023.10 1022.47 1021.73 1020.88 1019.96 1019.00 1018.05 1017.14 1016.33 1015.61 1015.02 1014.54 1014.18 1013.94 1013.81 1013.80 1013.92 1014.16
1027.37 1027.77 1028.05 1028.20 1028.25 1028.21 1028.12 1028.01 1027.90 1027.79 1027.68 1027.55 1027.40 1027.21 1026.96 1026.67 1026.34 1025.98 1025.64 1025.30 1025.00 1024.71 1024.41 1024.08 1023.67 1023.16 1022.52 1021.76 1020.87 1019.91 1018.90 1017.89 1016.92 1016.03 1015.25 1014.58 1014.03 1013.61 1013.31 1013.13 1013.09 1013.18 1013.41
1027.16 1027.60 1027.93 1028.15 1028.27 1028.30 1028.26 1028.18 1028.08 1027.96 1027.81 1027.63 1027.42 1027.16 1026.86 1026.52 1026.16 1025.80 1025.46 1025.15 1024.88 1024.63 1024.36 1024.06 1023.68 1023.18 1022.55 1021.78 1020.90 1019.92 1018.89 1017.85 1016.84 1015.91 1015.06 1014.31 1013.68 1013.16 1012.77 1012.51 1012.39 1012.42 1012.60
1026.91 1027.36 1027.74 1028.02 1028.21 1028.32 1028.36 1028.33 1028.25 1028.12 1027.94 1027.71 1027.43 1027.10 1026.74 1026.35 1025.96 1025.59 1025.26 1024.97 1024.72 1024.50 1024.26 1023.99 1023.63 1023.16 1022.56 1021.82 1020.96 1020.01 1019.00 1017.97 1016.96 1015.99 1015.08 1014.26 1013.52 1012.89 1012.37 1011.98 1011.73 1011.65 1011.74
1026.60 1027.03 1027.42 1027.75 1028.01 1028.20 1028.32 1028.36 1028.32 1028.20 1028.01 1027.75 1027.42 1027.04 1026.62 1026.19 1025.77 1025.39 1025.06 1024.78 1024.54 1024.33 1024.12 1023.86 1023.53 1023.09 1022.52 1021.84 1021.04 1020.15 1019.20 1018.22 1017.23 1016.25 1015.30 1014.40 1013.56 1012.79 1012.11 1011.56 1011.15 1010.92 1010.88
1026.23 1026.59 1026.95 1027.30 1027.61 1027.87 1028.07 1028.19 1028.21 1028.14 1027.96 1027.69 1027.34 1026.94 1026.50 1026.05 1025.61 1025.22 1024.88 1024.60 1024.36 1024.14 1023.92 1023.67 1023.34 1022.93 1022.40 1021.78 1021.06 1020.25 1019.39 1018.48 1017.54 1016.58 1015.62 1014.66 1013.72 1012.81 1011.97 1011.24 1010.64 1010.24 1010.04
1025.78 1026.04 1026.34 1026.66 1027.00 1027.32 1027.59 1027.78 1027.88 1027.87 1027.74 1027.51 1027.19 1026.79 1026.36 1025.91 1025.48 1025.08 1024.73 1024.43 1024.17 1023.92 1023.67 1023.38 1023.04 1022.63 1022.14 1021.56 1020.91 1020.20 1019.42 1018.60 1017.73 1016.82 1015.87 1014.88 1013.87 1012.86 1011.88 1010.98 1010.21 1009.62 1009.25
Thickness
5679 5680 5682 5684 5686 5689 5691 5692 5693 5694 5695 5696 5696 5697 5698 5699 5699 5700 5701 5701 5702 5702 5703 5703 5704 5705 5704 5705 5705 5705 5706 5706 5706 5706 5706 5707 5708 5708 5708 5708 5708 5707 5706
5677 5678 5679 5681 5683 5685 5687 5689 5690 5691 5691 5692 5692 5693 5694 5695 5695 5696 5697 5697 5698 5698 5699 5699 5700 5701 5701 5701 5701 5702 5702 5703 5703 5703 5703 5704 5705 5705 5705 5705 5705 5704 5704
5674 5675 5675 5677 5680 5682 5683 5685 5686 5687 5688 5688 5688 5689 5690 5691 5691 5692 5693 5693 5694 5694 5695 5695 5696 5696 5697 5697 5697 5698 5699 5700 5700 5701 5701 5701 5702 5702 5702 5702 5702 5701 5701
5671 5671 5671 5673 5675 5677 5679 5681 5682 5683 5683 5684 5684 5685 5685 5686 5687 5687 5688 5689 5689 5690 5690 5690 5691 5692 5692 5693 5694 5695 5696 5697 5697 5698 5698 5698 5699 5699 5699 5699 5699 5698 5698
5667 5667 5667 5669 5670 5672 5674 5676 5677 5678 5679 5680 5680 5680 5681 5681 5682 5683 5683 5684 5684 5685 5685 5686 5686 5687 5688 5689 5690 5691 5692 5693 5694 5694 5695 5695 5695 5695 5696 5695 5695 5695 5695
5662 5662 5662 5664 5665 5667 5669 5671 5672 5673 5674 5675 5676 5676 5676 5677 5678 5678 5678 5679 5679 5680 5681 5681 5681 5682 5683 5684 5685 5687 5689 5690 5691 5691 5691 5691 5692 5692 5692 5692 5692 5692 5692
5656 5656 5657 5658 5659 5661 5663 5665 5666 5668 5669 5670 5671 5671 5672 5672 5673 5673 5673 5674 5674 5675 5676 5676 5677 5678 5679 5680 5681 5683 5684 5686 5687 5687 5687 5687 5688 5688 5689 5689 5689 5689 5688
5649 5650 5650 5651 5653 5654 5656 5658 5660 5661 5663 5664 5665 5666 5666 5667 5667 5668 5668 5669 5670 5670 5671 5671 5672 5673 5674 5675 5677 5678 5680 5681 5682 5683 5683 5683 5684 5685 5685 5685 5685 5685 5685
5643 5643 5644 5645 5646 5648 5649 5651 5653 5655 5656 5658 5659 5660 5660 5661 5661 5662 5662 5663 5664 5665 5666 5667 5667 5668 5669 5671 5672 5674 5675 5677 5678 5678 5679 5679 5680 5681 5681 5681 5681 5682 5682
5635 5635 5637 5638 5640 5641 5643 5645 5646 5648 5649 5651 5652 5653 5654 5655 5656 5656 5656 5657 5658 5660 5661 5662 5662 5663 5664 5666 5667 5669 5670 5672 5673 5673 5673 5674 5675 5676 5677 5677 5677 5678 5678
5626 5627 5629 5631 5633 5635 5636 5638 5640 5641 5642 5644 5645 5647 5648 5649 5650 5650 5651 5651 5652 5654 5655 5656 5657 5658 5659 5661 5662 5664 5665 5666 5667 5668 5668 5669 5670 5671 5672 5672 5673 5673 5674
5616 5618 5620 5623 5625 5627 5629 5630 5632 5634 5635 5637 5638 5640 5642 5643 5644 5645 5645 5645 5646 5647 5648 5650 5651 5652 5653 5655 5656 5658 5660 5661 5661 5662 5662 5663 5665 5666 5667 5667 5668 5669 5669
5606 5608 5610 5613 5616 5618 5620 5623 5625 5626 5628 5630 5631 5633 5635 5636 5637 5638 5638 5638 5639 5641 5642 5643 5644 5646 5647 5649 5650 5652 5653 5655 5655 5656 5656 5657 5659 5660 5661 5662 5663 5664 5664
5596 5598 5601 5604 5606 5608 5611 5613 5616 5618 5620 5622 5623 5625 5627 5629 5630 5631 5632 5632 5632 5634 5635 5636 5638 5640 5641 5642 5644 5645 5647 5648 5649 5649 5650 5651 5653 5655 5656 5657 5658 5659 5660
5585 5588 5590 5593 5596 5599 5601 5603 5606 5608 5610 5612 5614 5616 5618 5620 5622 5623 5625 5625 5625 5626 5628 5629 5631 5633 5634 5636 5637 5638 5640 5641 5642 5643 5644 5645 5646 5648 5650 5652 5653 5654 5655
5575 5577 5579 5582 5585 5588 5590 5592 5594 5597 5599 5602 5604 5606 5608 5610 5612 5614 5616 5617 5618 5619 5620 5621 5623 5625 5627 5628 5629 5630 5632 5633 5635 5636 5637 5638 5640 5641 5643 5645 5647 5648 5649
5565 5567 5569 5571 5574 5576 5578 5580 5583 5585 5588 5591 5594 5596 5598 5600 5603 5604 5606 5608 5609 5610 5611 5613 5615 5616 5618 5619 5621 5622 5624 5625 5627 5629 5630 5631 5633 5634 5636 5638 5640 5642 5643
5555 5557 5559 5561 5563 5565 5568 5570 5572 5574 5577 5580 5583 5586 5588 5590 5593 5594 5596 5597 5599 5601 5602 5603 5605 5606 5607 5609 5611 5613 5615 5617 5619 5621 5622 5624 5625 5627 5629 5631 5633 5635 5636
5544 5546 5548 5551 5552 5555 5557 5559 5561 5563 5566 5569 5572 5575 5577 5580 5582 5583 5585 5587 5589 5590 5591 5593 5595 5596 5597 5599 5601 5604 5606 5608 5610 5612 5614 5616 5617 5619 5621 5623 5625 5627 5629
5534 5535 5537 5540 5542 5544 5547 5549 5551 5553 5555 5558 5560 5563 5566 5569 5571 5572 5574 5575 5577 5579 5580 5582 5583 5585 5586 5588 5592 5594 5597 5599 5601 5602 5605 5607 5609 5611 5612 5614 5616 5619 5621
5523 5525 5526 5529 5531 5534 5535 5537 5539 5541 5543 5546 5549 5552 5554 5557 5559 5561 5563 5564 5565 5567 5568 5570 5571 5573 5575 5578 5579 5581 5586 5589 5591 5593 5595 5597 5599 5601 5603 5605 5608 5610 5612
5513 5514 5516 5517 5520 5523 5524 5525 5527 5529 5531 5534 5537 5539 5542 5545 5547 5549 5550 5552 5554 5555 5556 5558 5559 5560 5563 5565 5566 5567 5570 5575 5579 5583 5585 5587 5589 5591 5594 5596 5598 5601 5603
5504 5504 5507 5507 5509 5511 5513 5514 5515 5517 5520 5522 5524 5527 5530 5532 5535 5537 5538 5540 5541 5542 5544 5545 5546 5547 5549 5552 5553 5554 5556 5560 5564 5571 5574 5576 5578 5581 5583 5586 5589 5591 5594
5494 5495 5496 5497 5498 5500 5501 5502 5503 5504 5506 5508 5511 5514 5517 5519 5522 5524 5526 5527 5528 5530 5531 5533 5534 5535 5536 5538 5541 5543 5546 5549 5550 5555 5561 5564 5567 5570 5573 5576 5579 5581 5584
5485 5485 5486 5486 5487 5488 5489 5489 5490 5492 5493 5495 5499 5502 5504 5507 5509 5511 5513 5514 5515 5517 5518 5520 5521 5523 5524 5526 5528 5530 5533 5536 5540 5542 5546 5550 5554 5558 5562 5565 5568 5572 5575
5474 5474 5475 5476 5476 5477 5478 5478 5479 5480 5481 5483 5486 5488 5491 5494 5496 5498 5499 5500 5502 5503 5505 5507 5509 5511 5512 5514 5516 5517 5519 5522 5527 5529 5533 5537 5541 5546 5551 5555 5559 5562 5565